Location: Vancouver
(49.2500°N, 123.1330°W)
Time: 11:34:46
(UTC-07:00)

AO-27 - Visible Passes

Search period start: 01 September 2014 00:00
Search period end: 11 September 2014 00:00
Orbit: 786 x 799 km, 98.7° (Epoch: 31 August)

Date Brightness Start Highest point End Pass type
(mag) Time Alt. Az. Time Alt. Az. Time Alt. Az.
01 Sep 8.8 02:54:57 10° NNE 02:59:41 35° E 03:00:34 32° ESE visible
01 Sep 8.3 04:34:28 10° N 04:39:15 38° WNW 04:41:20 27° WSW visible
02 Sep 9.5 02:26:47 10° NE 02:30:37 20° E 02:31:20 20° ESE visible
02 Sep 7.7 04:05:27 10° N 04:10:36 64° WNW 04:12:06 44° SW visible
02 Sep 9.6 05:47:05 10° NNW 05:49:10 12° NW 05:51:14 10° WNW visible
03 Sep 10.1 01:59:42 10° ENE 02:01:24 12° E 02:02:05 11° E visible
03 Sep 7.7 03:36:36 10° NNE 03:41:49 76° ESE 03:42:52 57° S visible
03 Sep 9.2 05:17:09 10° NNW 05:20:48 20° WNW 05:23:38 13° W visible
04 Sep 8.4 03:07:57 10° NNE 03:12:56 44° E 03:13:37 42° ESE visible
04 Sep 8.6 04:47:47 10° N 04:52:18 31° WNW 04:54:23 23° WSW visible
05 Sep 9.2 02:39:35 10° NE 02:43:55 26° E 02:44:23 26° ESE visible
05 Sep 7.9 04:18:41 10° N 04:23:42 51° WNW 04:25:09 39° WSW visible
06 Sep 9.9 02:11:48 10° NE 02:14:46 15° E 02:15:08 15° E visible
06 Sep 7.5 03:49:45 10° NNE 03:54:59 85° WNW 03:55:55 62° SSW visible
06 Sep 9.4 05:30:42 10° NNW 05:33:46 16° NW 05:36:41 11° W visible
07 Sep 8.0 03:21:01 10° NNE 03:26:09 57° E 03:26:40 54° SE visible
07 Sep 8.9 05:01:09 10° N 05:05:20 25° WNW 05:07:26 20° W visible
08 Sep 8.9 02:52:30 10° NNE 02:57:11 33° E 02:57:26 33° E visible
08 Sep 8.2 04:31:57 10° N 04:36:47 40° WNW 04:38:12 34° WSW visible
09 Sep 9.6 02:24:23 10° NE 02:28:06 19° E 02:28:11 19° E visible
09 Sep 7.6 04:02:57 10° N 04:08:07 68° WNW 04:08:57 58° WSW visible
09 Sep 9.6 05:44:25 10° NNW 05:46:44 13° NW 05:49:02 10° WNW visible
10 Sep 10.2 01:57:36 10° ENE 01:58:53 11° E 01:58:56 11° E visible
10 Sep 7.7 03:34:07 10° NNE 03:39:20 72° ESE 03:39:42 69° SE visible
10 Sep 9.1 05:14:35 10° N 05:18:21 21° WNW 05:20:29 16° W visible
